Location: Gro�bocka
(50.8204°N, 11.9702°E)
Time: 00:58:56
(UTC+00:00)

USA 308 - Pass Details

Date: 29 October 2020
Orbit: 571 x 578 km, 54.0° (Epoch: 23 November)

Event Time Altitude Azimuth Distance (km) Brightness Sun altitude
Rises 17:05:04 0° 293° (WNW) 2,789 7.6 -12.1°
Reaches altitude 10° 17:07:20 10° 291° (WNW) 1,887 6.6 -12.4°
Maximum altitude 17:11:37 75° 207° (SSW) 598 3.0 -13.1°
Enters shadow 17:15:05 15° 123° (ESE) 1,567 4.7 -13.7°
